Regional Weather Roundup
Issued by NWS

Home | Current Version | Previous Version | Text Only | Print | Product List | Glossary Off
Versions: 1 2 3 4 5 6 7 8 9 10 11 12 13 14 15 16 17 18 19 20 21 22 23 24 25 26 27 28 29 30 31 32 33 34 35 36 37 38 39 40 41 42 43 44 45 46 47 48 49 50

763
ASUS43 KMKX 082200
RWRWI

WISCONSIN REGIONAL WEATHER ROUNDUP
NATIONAL WEATHER SERVICE MILWAUKEE/SULLIVAN WI
400 PM CST MON FEB 08 2016

NOTE: "FAIR" INDICATES FEW OR NO CLOUDS BELOW 12,000 FEET WITH NO
SIGNIFICANT WEATHER AND/OR OBSTRUCTIONS TO VISIBILITY.

WIZ001-002-006>008-014>016-023>028-082300-
NORTHWEST WISCONSIN

CITY           SKY/WX    TMP DP  RH WIND       PRES   REMARKS
SUPERIOR ARPT  CLOUDY    14   4  65 NW17      29.95R WCI  -3
ASHLAND        LGT SNOW  15   9  76 NW7       29.88R WCI   5
HAYWARD        LGT SNOW  12   5  73 NW8G17    29.87R WCI   0
SIREN          LGT SNOW  14   4  63 N12G18    29.92R WCI   1
CUMBERLAND     LGT SNOW  12   5  73 NW10      29.87R WCI  -1
RICE LAKE      FLURRIES  15   6  67 NW12G17   29.89R WCI   1
CHETEK         LGT SNOW  14   8  78 NW8       29.88R WCI   3
LADYSMITH      LGT SNOW  15   9  78 NW14      29.85R WCI   0
EAU CLAIRE     LGT SNOW  15   6  67 NW13      29.88R WCI   1
MENOMONIE      LGT SNOW  17   6  62 NW15G21   29.90R WCI   2
NEW RICHMOND   CLOUDY    15   5  66 NW20G28   29.92R WCI  -2
OSCEOLA        CLOUDY    15   6  66 NW13G23   29.97R WCI   2
$$

WIZ003>005-009-010-017-018-082300-
NORTH CENTRAL WISCONSIN

CITY           SKY/WX    TMP DP  RH WIND       PRES   REMARKS
MANITOWISH WTR LGT SNOW  14  10  81 NW10G17   29.74R WCI   2
ARBOR VITAE    LGT SNOW  18  12  77 N14G21    29.73R WCI   4
WOODRUFF       LGT SNOW  18  12  77 N14G21    29.73R WCI   4
RHINELANDER    LGT SNOW  18  10  71 NW10      29.72R WCI   6
EAGLE RIVER    LGT SNOW  17  11  76 NW15      29.70R WCI   3
LAND O LAKES   LGT SNOW  17  13  82 NW7       29.72R WCI   8
PHILLIPS       LGT SNOW  15  10  82 NW7G16    29.76R WCI   5
TOMAHAWK       FLURRIES  19  11  72 NW8       29.73R WCI   9
MEDFORD        FLURRIES  16  10  77 NW9       29.75R WCI   5
MERRILL        LGT SNOW  21  15  78 N6G16     29.73R WCI  14
$$

WIZ029-030-035-036-043>047-082300-
CENTRAL WISCONSIN

CITY           SKY/WX    TMP DP  RH WIND       PRES   REMARKS
WAUSAU         LGT SNOW  23  15  71 NW14      29.71R WCI  11
MOSINEE        NOT AVBL
MARSHFIELD     CLOUDY    18   9  68 NW20      29.76R WCI   2
STEVENS POINT  FLURRIES  22  15  73 W10G16    29.72R WCI  11
WAUPACA        LGT SNOW  29  22  73 NW12G17   29.71R WCI  19
WAUTOMA        NOT AVBL
WISC RAPIDS    CLOUDY    20  10  65 NW18G25   29.77R WCI   5
CAMP DOUGLAS   NOT AVBL
$$

WIZ011>013-019>022-031-037>040-048>050-082300-
NORTHEAST WISCONSIN

CITY           SKY/WX    TMP DP  RH WIND       PRES   REMARKS
ANTIGO         CLOUDY    23  16  74 NW14      29.68R WCI  10
SHAWANO        FLURRIES  30  22  73 N8        29.70R WCI  22
OCONTO         CLOUDY    27  26  96 N6        29.69R WCI  20
STURGEON BAY   CLOUDY    27  18  69 N16       29.69R WCI  14
GREEN BAY      LGT SNOW  27  23  85 NW10      29.69R WCI  17
MANITOWOC      NOT AVBL
APPLETON       FLURRIES  27  18  69 NW17      29.67R WCI  14
CLINTONVILLE   LGT SNOW  27  23  86 NW8       29.70R VSB 1   WCI  18
OSHKOSH        CLOUDY    28  20  71 W10       29.69R WCI  19
$$

WIZ032>034-041-042-053>061-082300-
SOUTHWEST WISCONSIN

CITY           SKY/WX    TMP DP  RH WIND       PRES   REMARKS
LA CROSSE      CLOUDY    17   7  64 NW17      29.89R WCI   1
SPARTA         CLOUDY    19  10  68 NW15G24   29.84R WCI   4
VIROQUA        CLOUDY    17   9  70 NW16      29.79R WCI   2
BOSCOBEL       CLOUDY    22  11  62 NW9       29.84R WCI  12
PRAIRIE DU CHI CLOUDY    20   9  61 W18       29.85R WCI   5
PLATTEVILLE    CLOUDY    22  14  72 NW14G21   29.78R WCI   9
$$

WIZ056-057-062-063-064-067-068-082300-
SOUTH CENTRAL WISCONSIN

CITY           SKY/WX    TMP DP  RH WIND       PRES   REMARKS
REEDSBURG      CLOUDY    21  13  71 NW13G18   29.76R WCI   9
BARABOO/DELLS  CLOUDY    21  13  70 NW15      29.75R WCI   7
LONE ROCK      CLOUDY    22  11  62 W14       29.80R WCI   9
MINERAL POINT  CLOUDY    23  14  68 NW13G18   29.75R WCI  11
MADISON        FLURRIES  22  14  71 NW14G21   29.74R WCI   9
MIDDLETON      CLOUDY    23  16  73 NW14G20   29.74R WCI  11
WATERTOWN      LGT SNOW  24  21  89 NW16      29.70R WCI  11
MONROE         CLOUDY    23  18  80 NW15      29.73R WCI  10
JANESVILLE     CLOUDY    27  18  69 NW14      29.72R WCI  15
$$

WIZ051-052-058>065-066-070>072-082300-
SOUTHEAST WISCONSIN

CITY           SKY/WX    TMP DP  RH WIND       PRES   REMARKS
MILWAUKEE      FLURRIES  27  20  75 NW13      29.68R WCI  16
WAUKESHA       CLOUDY    25  19  80 W13       29.70R WCI  13
MILWAUKEE/TIMM CLOUDY    27  19  74 W13       29.69R WCI  16
RACINE         FLURRIES  27  20  75 NW14G21   29.70R WCI  16
BURLINGTON     CLOUDY    24  19  78 NW13      29.70R WCI  13
KENOSHA        CLOUDY    27  20  75 NW17G23   29.69R WCI  14
FOND DU LAC    CLOUDY    27  19  72 NW15      29.69R WCI  15
SHEBOYGAN      LGT SNOW  28  24  85 NW10      29.66R FOG     WCI  19
WEST BEND      CLOUDY    28  21  74 W9G18     29.67R WCI  20
JUNEAU         LGT SNOW  24  18  80 NW10G16   29.70S WCI  13
$$

LSZ147-162-082300-
LAKE SUPERIOR

STATION/POSITION TIME  TEMP    WIND        PRES    WAVE
                       AIR SEA DIR/SP/G            HT/PER
                 (UTC) (F)     (DEG/KT/KT) (MB)    (FT/S)
DEVILS ISLAND    2100   15     310/ 17/ 20 1012.6R
PORT WING        2100   16     310/ 16/ 22 1012.5R
SAXON HARBOR     2140   18                 1011.2R
$$

LMZ867-665-643>646-082300-
LAKE MICHIGAN

STATION/POSITION TIME  TEMP    WIND        PRES    WAVE
                       AIR SEA DIR/SP/G            HT/PER
                 (UTC) (F)     (DEG/KT/KT) (MB)    (FT/S)
CHAMBERS ISLAND  2100   27     310/ 14/ 18 1004.7R
NORTHPORT PIER   2100   27     340/ 17/ 22 1004.4R
ALGOMA LAKESHORE 2041          360/ 18/ 26   N/A
KEWAUNEE LAKESHO 2100   30     340/ 11/ 15 1003.2R
SHEBOYGAN LAKESH 2100   28     290/ 14/ 17 1004.7R
PORT WASHINGTON  2100   28     290/  8/ 13 1005.4R
MILWAUKEE LAKESH 2110   27     300/ 15/ 19   N/A
KENOSHA   LAKESH 2100   27     290/ 14/ 19 1005.1R
$$

TC  - TEMPERATURE IN CELSIUS
VSB - VISIBILITY IN STATUTE MILES
WCI - WIND CHILL INDEX
HX  - HEAT INDEX





USA.gov is the U.S. government's official web portal to all federal, state and local government web resources and services.